📊 Raw Sensor Data
Showing records 37126 to 37150 of 84,908 total
| ID | Distance (ft) | Battery V | Battery A | Int Temp (°F) | Int Humid (%) | Ext Temp (°F) | Solar V | RSSI | SNR | Time Stamp |
|---|---|---|---|---|---|---|---|---|---|---|
| 47795 | 15.7 | 3.95 | 5 | 99 | 47 | 91 | 5.10 | -69 | 8 | 07/30/2025 05:00 PM |
| 47794 | 15.6 | 3.93 | 5 | 99 | 47 | 88 | 5.10 | -69 | 8 | 07/30/2025 04:45 PM |
| 47793 | 15.7 | 3.94 | 0 | 100 | 45 | 91 | 5.10 | -70 | 8 | 07/30/2025 04:30 PM |
| 47792 | 15.7 | 3.93 | 5 | 100 | 45 | 90 | 5.10 | -69 | 8 | 07/30/2025 04:15 PM |
| 47791 | 15.7 | 3.93 | 5 | 100 | 44 | 91 | 5.10 | -69 | 8 | 07/30/2025 04:00 PM |
| 47790 | 15.7 | 3.93 | 0 | 99 | 44 | 89 | 5.10 | -69 | 7 | 07/30/2025 03:45 PM |
| 47789 | 15.6 | 3.93 | 5 | 98 | 44 | 89 | 5.10 | -69 | 8 | 07/30/2025 03:30 PM |
| 47788 | 15.7 | 3.93 | 0 | 98 | 43 | 88 | 5.10 | -71 | 7 | 07/30/2025 03:15 PM |
| 47787 | 15.6 | 3.93 | 0 | 97 | 42 | 88 | 5.10 | -69 | 8 | 07/30/2025 02:45 PM |
| 47786 | 15.6 | 3.94 | 5 | 96 | 41 | 86 | 5.10 | -69 | 8 | 07/30/2025 02:30 PM |
| 47785 | 15.6 | 3.93 | 5 | 94 | 42 | 87 | 5.10 | -70 | 8 | 07/30/2025 02:15 PM |
| 47784 | 15.6 | 3.93 | 0 | 93 | 42 | 84 | 5.10 | -68 | 8 | 07/30/2025 02:00 PM |
| 47783 | 15.6 | 3.93 | 5 | 92 | 42 | 83 | 5.10 | -69 | 8 | 07/30/2025 01:45 PM |
| 47782 | 15.6 | 3.93 | 5 | 88 | 43 | 83 | 5.10 | -70 | 7 | 07/30/2025 01:15 PM |
| 47781 | 15.6 | 3.93 | 0 | 88 | 42 | 80 | 5.10 | -68 | 7 | 07/30/2025 01:00 PM |
| 47780 | 15.6 | 3.93 | 0 | 87 | 42 | 82 | 5.10 | -69 | 7 | 07/30/2025 12:45 PM |
| 47779 | 15.6 | 4.07 | 5 | 85 | 43 | 82 | 5.10 | -69 | 7 | 07/30/2025 12:30 PM |
| 47778 | 15.6 | 3.93 | 5 | 84 | 43 | 83 | 5.10 | -69 | 7 | 07/30/2025 12:15 PM |
| 47777 | 15.7 | 3.93 | 0 | 82 | 43 | 81 | 5.10 | -69 | 8 | 07/30/2025 12:00 PM |
| 47776 | 15.6 | 3.93 | 5 | 81 | 43 | 79 | 5.10 | -70 | 8 | 07/30/2025 11:45 AM |
| 47775 | 15.6 | 3.93 | 0 | 81 | 42 | 81 | 5.10 | -69 | 8 | 07/30/2025 11:30 AM |
| 47774 | 15.7 | 3.93 | 0 | 79 | 43 | 78 | 5.10 | -71 | 8 | 07/30/2025 11:15 AM |
| 47773 | 15.7 | 4.11 | 0 | 77 | 43 | 78 | 5.10 | -73 | 7 | 07/30/2025 11:00 AM |
| 47772 | 15.7 | 3.93 | 5 | 76 | 43 | 74 | 5.10 | -69 | 8 | 07/30/2025 10:45 AM |
| 47771 | 15.6 | 3.93 | 0 | 76 | 43 | 75 | 5.10 | -69 | 7 | 07/30/2025 10:30 AM |